Content
SEND FEEDBACK

Daily
Averages
Monthly
Summary
Canada

QUEBEC CITY, QUEBEC


Home > North America > Canada > Quebec
Elevation: 239 feet     Latitude: 46 48N     Longitude: 071 23W

WEATHER
 
SELECT A DAY
Number of Records: 192,552;   Date Range: 6/30/96 - 8/27/14
 
SHARE

PRINT THIS DATA

[ ← Previous Day ]
WEATHER ALMANAC - MAY 3, 2013
[ Next Day → ]
[ °C ]   °F
Weather ElementAverageHighLow
Temperature51.3 °F66.2 °F (3:00 pm)39.2 °F (5:00 am)
Dewpoint37.9 °F41 °F (9:00 am)35.6 °F (11:00 am)
Humidity62.4 %93 % (5:00 am)27 % (2:00 pm)
Barometer30.51 in30.62 in (8:00 am)30.38 in (8:00 pm)
Wind Speed8.7 mph12.7 mph (2:00 am)
Wind Gust17.3 mph (1:00 am)
Weather ElementAverage
Visibility24.8 mi
Wind DirectionENE (72.3 °)

Weather ElementTotal
Precipitation---
Heating Degree Days12.3 (Base 65)
Growing Degree Days2.7 (Base 50)
Averaged from 30 records on May 3, 2013
WEATHER CONDITIONS BREAKOUT
WIND DIRECTION BREAKOUT
WEATHER BY HOUR - MAY 3, 2013
[ °C ]   °F
Local TimeTemperatureDewpointHumidityBarometerVisibilityWind DirectionWind SpeedGust SpeedPrecipitationEventsConditions
1:00 AM41.0 °F37.4 °F87 %30.55 in15.0 miENE (60°)9.2 mph17.3 mphPartly Cloudy
2:00 AM41.0 °F39.0 °F88 %30.54 inEast (80°)8.1 mph
2:00 AM41.0 °F37.4 °F87 %30.56 in15.0 miENE (70°)12.7 mphPartly Cloudy
3:00 AM41.0 °F37.4 °F87 %30.56 in15.0 miENE (70°)10.4 mphPartly Cloudy
4:00 AM41.0 °F37.4 °F87 %30.57 in15.0 miEast (80°)6.9 mphPartly Cloudy
5:00 AM40.0 °F38.0 °F90 %30.56 inEast (80°)5.8 mph
5:00 AM39.2 °F37.4 °F93 %30.58 in15.0 miEast (90°)8.1 mphPartly Cloudy
6:00 AM39.2 °F37.4 °F93 %30.60 in30.0 miENE (60°)8.1 mphPartly Cloudy
7:00 AM42.8 °F39.2 °F87 %30.61 in30.0 miENE (60°)8.1 mphPartly Cloudy
8:00 AM45.0 °F40.0 °F76 %30.60 inEast (80°)9.2 mph
8:00 AM44.6 °F39.2 °F81 %30.62 in30.0 miENE (60°)11.5 mphPartly Cloudy
9:00 AM50.0 °F41.0 °F71 %30.61 in30.0 miENE (60°)12.7 mphPartly Cloudy
10:00 AM51.8 °F39.2 °F62 %30.60 in30.0 miENE (60°)11.5 mph17.3 mphPartly Cloudy
11:00 AM54.0 °F37.0 °F42 %30.55 inEast (100°)11.5 mph
11:00 AM55.4 °F35.6 °F47 %30.58 in30.0 miEast (90°)12.7 mphPartly Cloudy
12:00 PM57.2 °F35.6 °F44 %30.55 in30.0 miEast (80°)9.2 mphPartly Cloudy
1:00 PM60.8 °F35.6 °F39 %30.52 in30.0 miNE (40°)11.5 mphPartly Cloudy
2:00 PM61.0 °F36.0 °F27 %30.47 inEast (100°)8.1 mph
2:00 PM62.6 °F37.4 °F39 %30.50 in30.0 miESE (110°)8.1 mphPartly Cloudy
3:00 PM66.2 °F37.4 °F35 %30.46 in30.0 miNE (50°)6.9 mphPartly Cloudy
4:00 PM66.2 °F37.4 °F35 %30.44 in30.0 miENE (70°)6.9 mphPartly Cloudy
5:00 PM66.2 °F39.2 °F37 %30.42 in30.0 miEast (90°)9.2 mphScattered Clouds
6:00 PM62.6 °F37.4 °F39 %30.41 in30.0 miENE (70°)9.2 mphScattered Clouds
7:00 PM59.0 °F37.4 °F45 %30.41 in30.0 miENE (70°)10.4 mphPartly Cloudy
8:00 PM55.0 °F38.0 °F42 %30.38 inEast (80°)6.9 mph
8:00 PM55.4 °F37.4 °F51 %30.41 in30.0 miEast (80°)9.2 mphPartly Cloudy
9:00 PM51.8 °F37.4 °F58 %30.43 in15.0 miENE (70°)5.8 mphPartly Cloudy
10:00 PM50.0 °F39.2 °F66 %30.43 in15.0 miNE (50°)4.6 mphClear
11:00 PM47.0 °F40.0 °F70 %30.40 inENE (60°)3.5 mph
11:00 PM50.0 °F39.2 °F66 %30.42 in15.0 miNE (50°)4.6 mphClear
Hourly data recorded from CYQB, located miles away from Quebec City, Quebec







STORIES FROM OUR PARTNERS